Temp
-11 -11 -11 -11 -11 -11 -12 -11 -11 -12 -12 -11 -11 -11 -12 -13 -14 -14 -14 -14 -14 -14 -14 -13 -13 -13 -13 -14 -14 -14 -14 -14 -14 -14 -14 -14 -14 -13 -13 -13 -13 -13 -13 -13
-11 -12 -12 -12 -12 -12 -12 -12 -12 -12 -13 -12 -12 -11 -12 -13 -14 -13 -13 -13 -13 -13 -13 -13 -13 -14 -14 -14 -14 -14 -14 -14 -14 -14 -14 -14 -14 -14 -14 -14 -14 -14 -14 -14
-12 -12 -12 -12 -13 -12 -13 -12 -12 -12 -13 -13 -12 -12 -13 -14 -13 -13 -13 -13 -13 -13 -14 -14 -14 -15 -15 -15 -15 -15 -15 -15 -15 -15 -15 -15 -15 -15 -15 -14 -14 -14 -14 -14
-12 -12 -13 -13 -13 -13 -13 -13 -13 -13 -13 -13 -13 -12 -13 -13 -14 -13 -13 -13 -14 -14 -14 -14 -15 -15 -16 -16 -16 -16 -16 -16 -16 -16 -16 -16 -15 -15 -15 -15 -15 -15 -15 -15
-12 -13 -13 -13 -14 -14 -14 -14 -14 -14 -14 -13 -14 -15 -14 -14 -13 -14 -14 -14 -14 -14 -15 -15 -15 -15 -16 -16 -17 -17 -17 -17 -16 -16 -16 -16 -16 -16 -16 -16 -16 -15 -15 -15
-13 -13 -13 -14 -14 -14 -14 -15 -14 -14 -15 -14 -15 -15 -14 -14 -14 -14 -15 -15 -15 -15 -16 -16 -16 -16 -16 -17 -17 -18 -19 -18 -18 -17 -17 -17 -17 -17 -16 -16 -16 -16 -16 -16
-14 -14 -14 -14 -15 -15 -15 -15 -15 -15 -15 -15 -16 -16 -15 -15 -15 -15 -16 -17 -18 -18 -17 -18 -18 -18 -18 -18 -18 -19 -19 -20 -19 -19 -18 -17 -17 -17 -17 -17 -17 -16 -16 -16
-14 -14 -14 -14 -14 -15 -15 -16 -16 -16 -16 -15 -16 -17 -17 -18 -18 -18 -18 -18 -18 -19 -20 -21 -22 -22 -22 -22 -22 -22 -22 -21 -21 -20 -19 -19 -18 -18 -18 -17 -17 -17 -17 -16
-15 -14 -15 -15 -15 -16 -16 -16 -17 -17 -17 -17 -16 -17 -18 -18 -19 -19 -20 -20 -21 -22 -23 -23 -23 -23 -22 -22 -23 -23 -22 -22 -21 -21 -20 -20 -20 -19 -19 -19 -19 -18 -18 -17
-15 -15 -15 -16 -16 -16 -17 -17 -17 -19 -19 -19 -18 -19 -19 -20 -21 -22 -23 -24 -24 -25 -25 -25 -25 -24 -24 -23 -23 -23 -23 -23 -22 -22 -22 -21 -21 -21 -20 -20 -20 -19 -18 -18
-16 -16 -16 -16 -16 -16 -17 -17 -18 -19 -20 -21 -21 -20 -21 -22 -23 -25 -26 -26 -27 -27 -27 -26 -25 -25 -24 -24 -24 -24 -24 -23 -24 -23 -23 -23 -23 -22 -21 -21 -20 -20 -20 -20
-16 -17 -16 -17 -17 -17 -18 -18 -19 -20 -21 -22 -23 -22 -24 -25 -26 -28 -28 -28 -28 -29 -28 -28 -27 -27 -26 -25 -25 -24 -24 -24 -24 -24 -23 -23 -24 -23 -23 -22 -22 -22 -22 -21
-17 -17 -17 -17 -17 -18 -18 -19 -20 -21 -22 -22 -24 -25 -27 -28 -29 -29 -30 -30 -30 -30 -30 -30 -30 -29 -28 -28 -27 -25 -25 -24 -25 -24 -24 -24 -24 -24 -23 -23 -22 -22 -22 -22
-18 -17 -18 -18 -19 -19 -20 -21 -22 -24 -24 -26 -27 -28 -29 -30 -31 -31 -31 -32 -32 -32 -32 -32 -31 -31 -30 -29 -28 -27 -26 -25 -25 -25 -24 -25 -24 -24 -23 -23 -23 -23 -22 -22
-18 -18 -19 -19 -20 -21 -21 -22 -23 -25 -27 -28 -29 -30 -31 -31 -32 -32 -32 -32 -32 -33 -33 -33 -33 -33 -32 -31 -29 -28 -27 -26 -25 -24 -24 -24 -24 -23 -24 -24 -23 -23 -22 -22
-18 -19 -19 -19 -21 -21 -22 -25 -26 -28 -29 -30 -31 -32 -32 -33 -33 -33 -33 -33 -33 -33 -33 -33 -33 -33 -33 -32 -30 -29 -27 -26 -26 -25 -25 -25 -24 -24 -24 -23 -23 -23 -22 -22
-19 -20 -20 -20 -22 -23 -25 -27 -29 -30 -31 -31 -32 -32 -33 -33 -33 -33 -34 -34 -34 -33 -33 -33 -33 -33 -33 -33 -32 -30 -29 -26 -26 -26 -26 -25 -25 -24 -24 -23 -23 -23 -23 -23
-20 -21 -22 -23 -25 -26 -28 -29 -30 -31 -32 -32 -33 -33 -33 -33 -33 -34 -34 -33 -33 -33 -33 -33 -33 -33 -33 -33 -32 -31 -30 -29 -27 -27 -26 -25 -24 -24 -23 -23 -23 -23 -23 -23
-22 -23 -25 -27 -28 -30 -30 -31 -32 -32 -32 -33 -33 -34 -33 -33 -33 -33 -33 -33 -33 -33 -33 -33 -33 -33 -33 -33 -32 -31 -30 -29 -28 -27 -26 -25 -24 -24 -24 -23 -23 -23 -23 -22
-23 -25 -27 -30 -31 -32 -32 -32 -33 -33 -33 -33 -33 -33 -33 -33 -32 -33 -33 -33 -33 -33 -33 -32 -33 -33 -33 -33 -32 -31 -29 -28 -27 -26 -26 -25 -24 -24 -23 -23 -23 -23 -23 -22
-26 -28 -30 -32 -32 -33 -33 -33 -34 -34 -34 -34 -33 -33 -33 -33 -33 -32 -32 -33 -33 -33 -32 -32 -32 -33 -33 -33 -31 -30 -29 -28 -26 -26 -25 -25 -24 -24 -23 -23 -23 -23 -22 -21
-29 -31 -32 -33 -33 -33 -33 -33 -34 -34 -34 -34 -34 -33 -33 -33 -33 -33 -33 -33 -33 -33 -33 -33 -33 -33 -33 -33 -31 -30 -29 -27 -27 -25 -25 -25 -24 -24 -24 -24 -23 -23 -22 -21
-31 -32 -33 -33 -33 -33 -33 -34 -34 -34 -34 -34 -33 -34 -33 -33 -33 -33 -33 -33 -33 -33 -33 -33 -33 -33 -33 -32 -31 -29 -28 -28 -27 -27 -26 -25 -25 -24 -24 -23 -23 -22 -22 -22
-33 -33 -33 -34 -34 -34 -34 -34 -34 -34 -34 -34 -33 -33 -33 -33 -33 -33 -33 -34 -34 -34 -33 -33 -33 -33 -33 -32 -31 -29 -28 -28 -27 -26 -26 -26 -25 -24 -24 -23 -23 -23 -23 -22
-34 -34 -34 -34 -34 -34 -34 -34 -34 -34 -34 -33 -34 -33 -33 -33 -33 -33 -34 -34 -34 -34 -33 -33 -33 -33 -33 -32 -30 -29 -28 -27 -26 -26 -26 -26 -25 -24 -24 -24 -24 -23 -23 -22
-34 -34 -34 -34 -34 -35 -35 -34 -34 -34 -34 -34 -34 -34 -33 -33 -34 -34 -34 -34 -33 -33 -33 -33 -33 -33 -33 -32 -31 -29 -28 -27 -26 -26 -26 -25 -25 -24 -24 -24 -24 -24 -23 -23
Height
5785 5784 5781 5780 5778 5776 5775 5775 5774 5772 5771 5770 5769 5767 5770 5769 5766 5764 5763 5760 5758 5753 5747 5748 5750 5751 5752 5752 5751 5751 5751 5750 5750 5750 5751 5751 5752 5752 5752 5752 5753 5753 5754 5754
5781 5779 5776 5774 5773 5771 5770 5769 5767 5767 5764 5762 5760 5757 5759 5757 5754 5750 5745 5740 5742 5743 5740 5740 5739 5738 5737 5737 5736 5735 5736 5736 5735 5736 5736 5738 5737 5737 5738 5739 5740 5741 5741 5742
5774 5773 5770 5767 5765 5763 5761 5760 5758 5756 5754 5751 5748 5748 5748 5746 5739 5734 5731 5730 5732 5731 5730 5730 5727 5725 5723 5721 5721 5721 5721 5721 5721 5720 5720 5722 5723 5723 5722 5725 5726 5727 5728 5729
5768 5766 5763 5760 5757 5755 5752 5750 5747 5745 5742 5739 5733 5736 5735 5725 5723 5723 5721 5720 5717 5715 5714 5712 5710 5709 5706 5705 5705 5705 5704 5704 5704 5705 5705 5706 5708 5708 5707 5710 5711 5713 5715 5715
5760 5756 5753 5752 5748 5745 5743 5739 5736 5732 5728 5724 5722 5720 5722 5712 5707 5707 5705 5701 5699 5697 5695 5692 5690 5687 5686 5685 5685 5684 5686 5687 5686 5688 5688 5689 5689 5691 5692 5694 5696 5697 5699 5700
5750 5747 5745 5742 5737 5733 5730 5726 5722 5717 5714 5709 5709 5704 5704 5702 5698 5690 5684 5681 5680 5675 5671 5669 5668 5668 5666 5665 5665 5664 5666 5666 5665 5667 5668 5670 5672 5673 5675 5677 5680 5681 5683 5685
5741 5737 5735 5732 5727 5722 5718 5712 5707 5705 5699 5698 5689 5683 5680 5681 5679 5676 5667 5657 5654 5652 5650 5646 5642 5641 5642 5642 5642 5642 5643 5645 5646 5647 5650 5652 5653 5654 5656 5658 5661 5664 5666 5669
5729 5724 5723 5719 5714 5709 5702 5697 5692 5685 5683 5684 5675 5663 5658 5655 5650 5650 5648 5643 5637 5631 5624 5619 5618 5617 5617 5618 5619 5620 5621 5621 5625 5628 5630 5634 5637 5636 5638 5641 5644 5647 5649 5652
5715 5713 5709 5704 5699 5695 5689 5682 5676 5668 5665 5657 5661 5650 5640 5632 5628 5623 5619 5615 5610 5605 5603 5601 5599 5599 5598 5599 5600 5601 5602 5604 5605 5608 5611 5613 5616 5618 5620 5623 5627 5631 5634 5636
5704 5699 5696 5692 5687 5680 5676 5670 5662 5652 5642 5634 5633 5630 5618 5610 5604 5596 5591 5586 5583 5580 5577 5577 5576 5576 5576 5576 5578 5579 5580 5583 5587 5588 5592 5595 5598 5601 5603 5607 5610 5614 5618 5620
5690 5687 5682 5677 5670 5664 5658 5649 5642 5636 5625 5612 5604 5604 5599 5591 5582 5573 5566 5562 5559 5555 5553 5552 5551 5549 5550 5552 5552 5555 5559 5563 5568 5571 5574 5578 5581 5584 5588 5591 5595 5598 5602 5604
5677 5670 5667 5662 5655 5648 5642 5633 5626 5614 5605 5589 5578 5574 5572 5564 5555 5547 5538 5532 5528 5522 5522 5521 5520 5519 5524 5526 5532 5537 5539 5542 5546 5554 5557 5560 5564 5569 5574 5578 5581 5584 5587 5589
5664 5656 5650 5642 5638 5629 5620 5610 5600 5592 5582 5574 5559 5552 5548 5539 5531 5524 5516 5509 5505 5500 5497 5496 5493 5492 5493 5498 5507 5512 5519 5525 5529 5535 5541 5544 5548 5555 5560 5566 5569 5571 5574 5577
5648 5643 5636 5627 5617 5611 5604 5593 5582 5569 5558 5550 5542 5533 5529 5522 5514 5509 5503 5493 5487 5481 5478 5475 5472 5470 5470 5472 5479 5487 5494 5500 5513 5518 5522 5528 5534 5540 5547 5552 5556 5559 5562 5564
5633 5627 5619 5609 5599 5590 5581 5570 5562 5550 5540 5530 5524 5515 5510 5503 5498 5491 5486 5478 5474 5469 5464 5460 5456 5454 5452 5453 5457 5463 5471 5481 5490 5498 5503 5511 5520 5526 5533 5537 5543 5548 5549 5550
5618 5609 5600 5590 5580 5568 5559 5551 5539 5531 5521 5514 5507 5503 5495 5491 5485 5480 5472 5465 5461 5456 5451 5448 5444 5441 5439 5438 5440 5445 5450 5466 5474 5482 5489 5498 5506 5514 5520 5526 5531 5535 5536 5537
5599 5589 5578 5571 5559 5548 5541 5535 5527 5516 5509 5502 5497 5493 5487 5482 5475 5468 5462 5454 5448 5443 5437 5433 5430 5428 5428 5426 5425 5430 5437 5447 5457 5467 5476 5486 5495 5503 5510 5516 5520 5523 5524 5525
5577 5567 5556 5550 5538 5530 5523 5518 5513 5506 5499 5492 5486 5481 5477 5471 5465 5459 5449 5442 5437 5430 5425 5421 5416 5414 5414 5415 5415 5418 5426 5432 5444 5456 5465 5475 5485 5493 5501 5505 5509 5511 5513 5515
5558 5546 5538 5528 5520 5512 5508 5502 5498 5494 5491 5484 5478 5472 5467 5461 5455 5451 5440 5431 5424 5417 5411 5407 5404 5402 5402 5403 5405 5409 5416 5425 5436 5447 5457 5467 5478 5487 5491 5496 5498 5501 5503 5504
5541 5531 5522 5514 5504 5499 5498 5492 5487 5481 5479 5474 5468 5462 5456 5449 5443 5439 5430 5423 5415 5406 5400 5394 5391 5390 5390 5393 5395 5400 5408 5417 5427 5439 5453 5462 5470 5477 5483 5486 5488 5492 5494 5496
5522 5515 5510 5502 5497 5492 5486 5481 5475 5473 5472 5463 5458 5453 5446 5440 5433 5427 5420 5413 5405 5397 5391 5386 5381 5379 5379 5384 5388 5393 5401 5411 5424 5438 5446 5453 5462 5469 5474 5477 5480 5484 5487 5489
5505 5499 5496 5493 5489 5485 5479 5474 5469 5465 5459 5454 5450 5444 5438 5433 5425 5418 5411 5405 5398 5392 5385 5379 5374 5371 5371 5376 5381 5388 5396 5407 5419 5429 5438 5447 5455 5462 5467 5471 5475 5479 5481 5484
5496 5492 5487 5485 5480 5474 5470 5465 5460 5457 5452 5447 5442 5437 5430 5426 5417 5411 5404 5398 5392 5384 5377 5370 5366 5364 5365 5371 5376 5385 5393 5403 5414 5424 5434 5441 5449 5456 5462 5467 5470 5474 5475 5478
5486 5482 5479 5474 5470 5465 5461 5456 5454 5449 5444 5440 5434 5428 5423 5417 5410 5405 5398 5392 5384 5376 5368 5363 5359 5357 5361 5367 5371 5382 5392 5401 5410 5419 5429 5436 5445 5453 5457 5461 5466 5469 5472 5475
5476 5473 5469 5464 5461 5456 5454 5450 5447 5443 5438 5433 5428 5421 5416 5411 5405 5399 5393 5386 5376 5367 5360 5355 5352 5352 5358 5363 5369 5379 5390 5399 5407 5417 5426 5434 5442 5448 5453 5458 5462 5466 5470 5473
5466 5463 5459 5456 5453 5449 5448 5445 5441 5437 5432 5427 5423 5418 5410 5406 5400 5395 5388 5380 5370 5363 5356 5351 5348 5351 5358 5362 5368 5376 5386 5395 5405 5414 5423 5431 5438 5443 5450 5455 5459 5463 5467 5470
Wind_Speed
17 18 21 22 22 23 25 27 29 30 31 36 34 34 28 29 32 34 34 37 38 41 46 48 47 47 47 46 47 47 47 46 47 47 47 48 49 49 49 49 48 47 46 46
21 22 24 25 25 27 28 29 30 31 32 38 40 43 37 34 36 40 43 46 47 48 50 51 51 52 54 55 53 53 54 52 50 50 49 49 50 51 52 52 49 49 47 47
25 25 26 27 27 30 31 34 36 38 38 40 44 46 44 40 47 50 50 51 51 52 53 54 57 58 61 62 61 61 60 58 55 54 55 54 52 53 53 52 50 52 51 49
29 29 31 32 33 35 37 37 40 42 45 47 51 49 46 50 51 52 55 56 57 58 60 61 62 61 61 61 61 63 63 63 63 62 60 57 56 55 56 54 54 55 55 53
34 35 35 35 37 39 40 42 44 46 49 52 51 49 46 54 57 58 60 62 63 66 68 69 69 68 67 65 62 61 58 60 65 65 64 62 60 58 58 58 57 58 58 56
36 38 38 38 41 43 45 46 48 49 50 54 51 54 56 56 59 64 68 71 73 75 76 76 75 75 74 72 68 63 59 60 60 63 64 63 62 61 60 61 61 60 61 58
40 42 42 43 44 47 48 49 51 52 53 54 58 61 65 66 67 70 73 75 74 75 77 79 81 81 81 80 77 72 65 61 62 63 64 68 66 64 63 63 64 63 62 60
44 47 46 47 48 49 50 52 53 57 59 59 63 68 72 72 73 74 76 79 80 80 78 76 74 75 69 68 66 66 64 68 60 62 64 65 69 69 67 66 65 65 64 61
47 48 48 49 50 52 55 56 58 63 66 70 69 73 78 81 81 80 80 80 78 78 76 75 75 76 74 72 71 72 70 70 62 62 63 61 65 65 63 64 64 64 64 63
48 49 50 51 53 56 57 60 63 66 69 74 77 78 84 82 82 83 82 82 81 78 77 76 76 81 82 78 75 72 73 65 60 63 62 62 61 62 62 63 64 64 66 66
50 52 54 56 57 60 63 67 70 73 76 79 81 81 83 82 81 81 80 79 78 77 76 74 69 67 59 68 80 81 71 67 66 64 60 60 58 58 59 62 63 65 65 62
52 56 57 58 61 65 68 72 74 77 78 80 80 85 80 77 76 74 74 75 73 71 69 71 75 81 84 81 68 61 53 60 74 60 62 59 63 60 61 60 58 59 60 63
54 58 61 65 68 72 74 77 80 81 82 83 80 80 73 70 69 67 65 64 63 62 60 59 61 64 73 81 81 71 81 69 59 62 62 59 63 60 56 59 52 56 59 57
58 61 63 67 71 74 76 77 77 76 76 72 70 66 61 59 57 53 51 55 56 55 53 52 53 55 59 62 75 70 63 74 68 60 68 62 57 57 58 55 52 51 49 48
61 64 68 71 75 77 79 80 74 70 68 65 62 59 53 50 47 46 44 46 46 45 43 42 44 44 45 50 55 75 75 47 58 68 43 50 54 50 50 53 48 43 43 45
66 70 73 78 76 77 78 69 65 61 58 56 52 48 48 43 41 43 47 50 50 48 48 45 40 40 39 41 47 60 82 68 40 42 61 53 58 44 43 45 45 40 35 37
71 75 78 79 74 73 68 59 54 52 49 48 45 41 40 40 42 46 48 51 51 50 49 44 43 38 37 35 39 46 58 75 53 31 47 52 48 52 47 44 44 40 38 40
74 74 75 71 64 62 57 49 46 45 44 41 40 39 41 41 45 48 48 48 48 48 46 41 38 34 36 33 30 31 35 60 75 52 40 45 39 39 44 40 38 37 38 39
73 71 66 59 53 50 46 45 44 40 37 37 37 39 41 44 45 40 45 48 48 48 46 43 37 29 32 29 27 31 31 35 44 60 47 40 43 34 30 33 33 36 37 35
71 59 55 45 42 44 43 43 41 40 36 35 36 38 42 42 41 40 42 41 43 44 39 36 34 27 28 26 29 32 34 30 39 58 49 41 43 31 33 31 32 32 30 29
57 48 41 37 39 42 44 40 41 39 37 37 38 41 40 40 42 41 41 41 40 38 33 32 31 26 27 25 32 33 38 32 41 48 39 38 39 33 29 32 31 33 20 22
46 40 36 34 38 40 40 40 38 37 37 38 40 38 38 39 40 38 40 38 36 35 34 33 30 24 28 26 32 33 34 33 33 39 36 37 32 28 27 25 26 29 16 13
38 37 35 37 39 41 37 36 34 34 36 37 35 36 37 36 36 35 37 38 39 40 37 34 32 22 28 25 36 36 37 36 28 25 27 28 26 25 25 16 21 26 18 15
34 35 36 39 38 38 35 33 30 33 36 34 35 34 33 34 36 33 35 37 39 39 37 33 27 18 25 25 37 43 36 29 26 25 28 21 25 22 25 20 17 17 15 14
35 37 37 37 36 34 29 28 30 32 32 32 32 33 34 33 34 30 31 37 38 34 31 26 19 16 25 25 37 42 35 36 29 28 30 30 30 23 19 18 15 18 16 18
36 35 34 32 29 27 25 27 28 28 28 29 28 28 32 32 30 27 29 35 37 30 23 22 13 20 24 23 34 40 35 34 34 36 34 32 30 22 24 21 20 16 14 19
Wind_Direction
300 297 291 293 290 290 291 295 300 296 299 298 296 290 284 282 283 283 286 281 277 269 264 268 271 271 272 272 272 272 270 266 265 266 267 269 267 268 265 263 265 266 267 268
295 297 293 292 292 290 291 294 294 296 292 293 294 293 293 285 287 279 273 268 269 273 274 274 273 273 273 273 270 268 267 266 264 265 265 265 266 264 264 262 261 261 261 263
293 292 290 287 288 291 295 298 297 296 292 287 287 288 290 288 278 278 275 275 276 276 277 276 275 276 276 273 271 270 270 267 263 261 263 264 264 261 259 258 261 261 260 260
291 292 291 291 293 295 295 293 292 292 291 288 287 287 288 281 279 279 281 281 281 280 279 279 279 278 277 275 275 273 268 265 263 262 263 261 259 258 257 258 261 259 258 260
290 290 288 291 291 290 290 290 290 289 287 287 286 289 283 282 284 283 284 284 284 282 281 278 278 278 277 277 277 275 272 272 268 267 263 259 256 256 256 257 259 258 257 260
288 288 290 292 292 291 291 291 290 288 288 287 291 286 282 283 283 285 286 286 284 283 282 282 281 279 278 277 275 273 270 267 266 265 257 255 255 255 256 258 259 258 256 258
288 288 290 292 291 292 292 290 288 289 288 290 291 290 288 287 285 284 284 287 287 285 284 284 283 279 276 273 272 270 267 261 260 257 262 261 255 254 255 256 258 258 255 254
291 292 294 294 294 295 294 293 293 292 292 293 293 292 293 293 290 289 288 287 286 284 280 275 271 269 262 261 262 264 264 264 260 256 254 258 261 254 254 255 255 256 257 254
293 294 296 297 297 296 296 297 296 295 295 293 292 292 292 291 291 290 288 285 280 275 269 262 260 258 256 256 257 260 257 264 262 256 252 251 252 251 250 252 255 257 257 259
296 296 296 297 297 295 295 296 296 296 297 294 295 292 291 292 291 289 286 283 280 276 272 269 262 258 260 259 259 260 263 254 253 255 251 249 252 251 251 251 253 252 254 258
298 297 298 298 298 298 299 299 298 297 295 296 294 293 293 291 288 284 280 278 275 270 265 262 259 253 255 258 252 252 249 245 254 255 254 251 251 250 249 250 252 253 255 257
297 297 298 298 298 298 297 297 297 297 299 295 293 294 292 289 287 285 283 283 283 280 276 271 261 255 252 258 260 251 246 255 258 251 253 250 246 246 249 252 252 256 257 259
298 297 300 300 300 300 300 300 300 299 297 294 292 292 292 289 288 289 289 288 286 284 282 276 269 264 257 248 248 251 251 249 244 249 251 253 248 245 244 251 252 253 259 263
299 299 301 300 299 300 300 299 298 295 293 293 291 292 289 290 290 289 288 287 287 286 284 280 277 272 264 257 244 241 244 232 238 240 248 249 243 247 249 250 250 253 261 260
299 301 301 301 301 301 300 299 298 296 295 294 295 295 297 297 298 298 296 291 292 296 295 287 276 275 274 263 251 238 237 227 221 232 234 238 238 243 244 239 249 255 259 256
302 302 302 302 303 302 301 300 297 297 297 297 298 301 300 301 299 296 300 301 302 300 297 295 291 270 271 271 254 240 237 230 231 234 242 238 243 243 244 245 253 255 258 263
304 304 304 305 302 300 299 298 298 298 298 298 300 298 297 296 296 301 302 299 299 299 299 300 288 281 260 269 261 245 242 229 225 229 229 235 240 243 249 248 248 253 263 262
306 305 303 302 300 299 300 301 301 301 301 301 299 299 298 298 301 304 303 301 302 301 301 302 302 282 257 260 259 242 236 242 236 235 233 233 241 231 235 242 246 251 255 254
306 303 303 301 300 300 307 306 306 303 300 299 300 298 297 300 302 306 304 305 306 304 300 298 298 280 254 253 244 224 221 217 230 233 238 238 232 225 231 237 243 249 246 246
307 305 303 302 300 302 308 308 305 302 303 305 300 301 305 307 309 312 310 312 312 311 307 303 291 281 247 241 230 213 217 204 220 228 234 224 226 226 233 241 248 246 240 237
308 304 302 299 300 305 308 309 304 303 308 304 306 309 309 312 314 314 314 318 316 316 312 312 303 275 239 232 223 203 207 192 199 209 199 211 208 221 229 240 249 240 243 223
307 302 301 300 303 304 304 302 299 302 304 306 309 309 311 314 313 313 316 320 318 314 310 311 313 273 231 227 213 201 214 196 200 192 204 206 206 218 233 238 243 239 217 210
303 298 299 299 302 302 302 300 299 304 304 307 308 310 312 315 314 315 316 319 319 315 314 312 313 271 221 221 208 195 201 213 211 213 202 203 204 219 232 224 219 221 227 251
298 297 296 300 303 301 301 299 303 306 307 309 310 311 313 321 319 317 316 319 318 315 309 310 307 267 206 213 207 188 199 209 197 210 211 206 205 210 209 220 205 200 224 235
297 296 298 298 298 298 297 301 305 304 305 309 314 313 316 319 322 320 323 326 326 323 313 310 298 235 196 209 200 183 181 188 197 203 207 212 199 207 204 204 206 183 175 160
294 295 296 296 295 295 297 302 303 304 308 312 312 314 317 319 324 323 327 336 339 335 327 320 290 198 195 205 205 182 183 186 201 200 203 197 198 201 195 210 188 170 184 186